Regional Weather Roundup
Issued by NWS

Home | Current Version | Previous Version | Graphics & Text | Print | Product List | Glossary On
Versions: 1 2 3 4 5 6 7 8 9 10 11 12 13 14 15 16 17 18 19 20 21 22 23 24 25 26 27 28 29 30 31 32 33 34 35 36 37 38 39 40 41 42 43 44 45 46 47 48 49 50
000
ASUS43 KIND 070009
RWRIN

WEATHER ROUNDUP FOR INDIANA
NATIONAL WEATHER SERVICE INDIANAPOLIS IN
800 PM EDT MON JUL 06 2015

NOTE: "FAIR" INDICATES FEW OR NO CLOUDS BELOW 12,000 FEET WITH NO
SIGNIFICANT WEATHER AND/OR OBSTRUCTIONS TO VISIBILITY.

* - STATION DOES NOT REPORT WEATHER SUCH AS PRECIPITATION OR FOG.

+ - STATION NOT QUALITY CONTROLLED BY THE NATIONAL WEATHER SERVICE.
    USE DATA WITH CAUTION...ESPECIALLY DEWPOINT AND RELATIVE
    HUMIDITY OBSERVATIONS.

INZ001>003-010>013-019-020-070100-
NORTHWEST INDIANA

CITY           SKY/WX    TMP DP  RH WIND       PRES   REMARKS
GARY /AIRPORT/ PTSUNNY  N/A N/A N/A S6        29.87F
KNOX *+        CLOUDY    81  68  65 S10       29.90F
LA PORTE +     CLOUDY    83  70  66 S8        29.91F
6HR MIN TEMP:  82; 6HR MAX TEMP:  86;

MICHIGAN CITY+ CLOUDY    73  68  83 S6        29.89S
MONTICELLO +   PTSUNNY   81  73  75 S7        29.91F
6HR MIN TEMP:  81; 6HR MAX TEMP:  85;

RENSSELAER +   CLOUDY    81  73  78 S9        29.91S
VALPARAISO     CLOUDY    75  72  90 SE9       29.90F
6HR MIN TEMP:  75; 6HR MAX TEMP:  85; 6HR PCP:  0.21;


$$

LMZ046-743>745-070100-
SOUTHERN LAKE MICHIGAN

STATION/POSITION TIME  TEMP    WIND        PRES    WAVE
                       AIR SEA DIR/SP/G            HT
                 (UTC) (F)     (DEG/KT/KT) (MB)    (FT)
BURNS HARBOR     0000   78     180/  6/ 15 1012.2S
MICHIGAN CITY    0000   75     140/  9/ 11   N/A
5NW MICH CITY    0000   72 68  180/  4/  6   N/A     1

$$

INZ004-005-014>016-021>024-070100-
NORTH CENTRAL INDIANA

CITY           SKY/WX    TMP DP  RH WIND       PRES   REMARKS
ELKHART        CLOUDY    82  66  57 S7        29.92F
GOSHEN         PTSUNNY   81  66  60 S10       29.92F
6HR MIN TEMP:  80; 6HR MAX TEMP:  83;

LOGANSPORT +   PTSUNNY   79  64  61 S5        29.94S
PERU/GRISSOM   PTSUNNY   81  70  68 S6        29.93F
6HR MIN TEMP:  81; 6HR MAX TEMP:  85;

ROCHESTER +    PTSUNNY   82  70  65 S6        29.93F
SOUTH BEND     CLOUDY    82  69  64 S12       29.91F
6HR MIN TEMP:  82; 6HR MAX TEMP:  86;

WARSAW +         N/A     81  66  61 S3        29.93F

$$

INZ006>009-017-018-025>027-070100-
NORTHEAST INDIANA

CITY           SKY/WX    TMP DP  RH WIND       PRES   REMARKS
ANGOLA *+        N/A     84  66  54 SW9       29.95S
AUBURN +       MOSUNNY   81  63  54 CALM      29.96S
FORT WAYNE     PTSUNNY   80  66  62 S9        29.96S
6HR MIN TEMP:  80; 6HR MAX TEMP:  85;

HUNTINGTON +   MOSUNNY   80  66  62 SW3       29.95S
6HR MIN TEMP:  80; 6HR MAX TEMP:  84;


$$

INZ028-029-035-036-043>045-051>053-070100-
WEST CENTRAL INDIANA

CITY           SKY/WX    TMP DP  RH WIND       PRES   REMARKS
CRAWFORDSVL +  PTSUNNY   78  67  68 S6        29.94F
6HR MIN TEMP:  78; 6HR MAX TEMP:  82;

GREENCASTLE +  PTSUNNY   79  68  69 S6        29.96S
LAFAYETTE      PTSUNNY   81  70  69 S7        29.92S
6HR MIN TEMP:  81; 6HR MAX TEMP:  84;

TERRE HAUTE    PTSUNNY   84  73  69 S9        29.93F
6HR MIN TEMP:  83; 6HR MAX TEMP:  87;


$$

INZ030>032-037>040-046>048-054>057-064-065-070100-
CENTRAL INDIANA

CITY           SKY/WX    TMP DP  RH WIND       PRES   REMARKS
CP ATTERBURY + SUNNY     79  70  73 S6        29.97F
COLUMBUS       SUNNY     82  64  54 SW8       29.97
FRANKFORT +    PTSUNNY   82  71  70 CALM      29.96F
6HR MIN TEMP:  82; 6HR MAX TEMP:  86;

GREENWOOD *+   SUNNY     81  68  65 S7        29.98S
INDIANAPOLIS   MOSUNNY   81  68  64 S9        29.95F
6HR MIN TEMP:  81; 6HR MAX TEMP:  85;

-EAGLE CREEK   MOSUNNY   82  68  62 SW7       29.95F
6HR MIN TEMP:  82; 6HR MAX TEMP:  85;

KOKOMO *+      MOSUNNY   82  66  57 SW9       29.94F
6HR MIN TEMP:  82; 6HR MAX TEMP:  84;

MARION +       MOSUNNY   79  65  62 S7        29.96S
MT COMFORT *+  SUNNY     81  61  50 S6        29.98S
SHELBYVILLE    SUNNY     82  70  66 S8        29.97F
6HR MIN TEMP:  82; 6HR MAX TEMP:  86;

ZIONSVILLE +   MOSUNNY   82  66  59 S7        29.96F
6HR MIN TEMP:  82; 6HR MAX TEMP:  85;


$$

INZ033-034-041-042-049-050-058-059-070100-
EAST CENTRAL INDIANA

CITY           SKY/WX    TMP DP  RH WIND       PRES   REMARKS
MUNCIE         SUNNY     82  66  58 S9        29.97F
6HR MIN TEMP:  82; 6HR MAX TEMP:  86;


$$

INZ060-061-067>069-081>083-085>088-070100-
SOUTHWEST INDIANA

CITY           SKY/WX    TMP DP  RH WIND       PRES   REMARKS
EVANSVILLE     MOSUNNY   85  73  67 S12       29.96F
6HR MIN TEMP:  84; 6HR MAX TEMP:  87; 6HR PCP: TRACE;

HUNTINGBURG *+ SUNNY     82  72  69 S6        29.97S
6HR MIN TEMP:  82; 6HR MAX TEMP:  86;

WASHINGTON +   MOSUNNY   82  70  66 S7        29.95F
6HR MIN TEMP:  82; 6HR MAX TEMP:  86;


$$

INZ062-063-066-070>080-084-089>092-070100-
SOUTH CENTRAL AND SOUTHEAST INDIANA

CITY           SKY/WX    TMP DP  RH WIND       PRES   REMARKS
BLOOMINGTON    MOSUNNY   81  72  74 S5        29.97F
6HR MIN TEMP:  81; 6HR MAX TEMP:  85;

MADISON *+     SUNNY     81  66  61 SW6       30.02S
SEYMOUR +      SUNNY     82  72  69 S6        29.98S

$$




USA.gov is the U.S. government's official web portal to all federal, state and local government web resources and services.